Tracking 19564 objects as of 19-Mar-2019
HD Live streaming from Space Station
objects crossing your sky now

SL-14 R/B

Track SL-14 R/B now!
10-day predictions
SL-14 R/B is classified as:


NORAD ID: 17912
Int'l Code: 1987-038B
Perigee: 613.9 km
Apogee: 640.1 km
Inclination: 82.5 °
Period: 97.1 minutes
Semi major axis: 6998 km
RCS: 4.8281 m2 (large)
Launch date: April 27, 1987
Source: Commonwealth of Independent States (former USSR) (CIS)
Launch site: PLESETSK MISSILE AND SPACE COMPLEX (PKMTR)

Note: This is a ROCKET BODY
aabbcc
Your satellite tracking list
Your tracking list is empty




NASA's NSSDC Master Catalog

Two Line Element Set (TLE):
1 17912U 87038B   19077.68070312  .00000062  00000-0  47645-5 0  9996
2 17912  82.5046 170.3353 0018741 285.7666  74.1481 14.83002222722505
Source of the keplerian elements: AFSPC